Decatur, AL

5:41 AM CST on February 24, 2018 (GMT -0600)
Pryor Regional

Weather History for KDCU - July, 2013

Change the Weather History Date:

Monday, July 29, 2013

  Actual Average Record
Temperature  
Mean Temperature 74 °F -  
Max Temperature 84 °F 89 °F 107 °F (1952)
Min Temperature 63 °F 67 °F 59 °F (2014)
Cooling Degree Days 9    
Growing Degree Days 24 (Base 50)    
Moisture  
Dew Point 60 °F    
Average Humidity 68    
Maximum Humidity 93    
Minimum Humidity 35    
Precipitation  
Precipitation 0.00 in - - ()
Sea Level Pressure  
Sea Level Pressure 30.14 in    
Wind  
Wind Speed 3 mph (NNE)    
Max Wind Speed 6 mph    
Max Gust Speed -    
Visibility 10 miles    
Events      
Averages and records for this station are not official NWS values.
T = Trace of Precipitation, MM = Missing Value Source: NWS Daily Summary

Daily Weather History Graph

Daily Weather History Graph

Search for Another Location

Airport or City:

Trip Planner

Search our weather history database for the weather conditions in past years. The results will help you decide how hot, cold, wet, or windy it might be!

Date:

Astronomy

Jul. 29, 2013 Rise Set
Actual Time 5:55 AM CDT 7:52 PM CDT
Civil Twilight 5:28 AM CDT 8:19 PM CDT
Nautical Twilight 4:54 AM CDT 8:53 PM CDT
Astronomical Twilight 4:18 AM CDT 9:29 PM CDT
Moon No Moon Rise 1:15 PM CDT (7/29)
Length of Visible Light 14h 51m
Length of Day
13h 56m
Waning Gibbous, 50% of the Moon is Illuminated
Jul 29
Waning Gibbous
Jul 29
Last Quarter
Aug 6
New
Aug 14
First Quarter
Aug 20
Full

Hourly Weather History & Observations

Time (CDT) Temp. Heat Index Dew Point Humidity Pressure Visibility Wind Dir Wind Speed Gust Speed Precip Events Conditions
12:53 AM 66.9 °F - 63.0 °F 87% 30.07 in 10.0 mi Calm Calm - N/A   Clear
1:53 AM 66.9 °F - 63.0 °F 87% 30.07 in 10.0 mi NNW 3.5 mph - N/A   Clear
2:53 AM 66.0 °F - 63.0 °F 90% 30.08 in 10.0 mi North 4.6 mph - N/A   Clear
3:53 AM 66.0 °F - 60.1 °F 81% 30.07 in 10.0 mi NE 4.6 mph - N/A   Clear
4:53 AM 66.0 °F - 61.0 °F 84% 30.08 in 10.0 mi NNE 3.5 mph - N/A   Clear
5:53 AM 64.0 °F - 60.1 °F 87% 30.11 in 10.0 mi North 5.8 mph - N/A   Clear
6:53 AM 66.9 °F - 61.0 °F 81% 30.12 in 10.0 mi NNE 4.6 mph - N/A   Clear
7:53 AM 69.1 °F - 62.1 °F 78% 30.14 in 10.0 mi NNE 3.5 mph - N/A   Clear
8:53 AM 73.9 °F - 61.0 °F 64% 30.16 in 10.0 mi Calm Calm - N/A   Clear
9:53 AM 77.0 °F - 60.1 °F 56% 30.17 in 10.0 mi NE 4.6 mph - N/A   Partly Cloudy
10:53 AM 78.1 °F - 59.0 °F 52% 30.17 in 10.0 mi East 5.8 mph - N/A   Clear
11:53 AM 79.0 °F - 57.0 °F 47% 30.17 in 10.0 mi NNE 4.6 mph - N/A   Clear
12:53 PM 79.0 °F - 57.9 °F 48% 30.17 in 10.0 mi NNW 3.5 mph - N/A   Clear
1:53 PM 80.1 °F 80.7 °F 59.0 °F 48% 30.16 in 10.0 mi NNE 4.6 mph - N/A   Clear
2:53 PM 82.9 °F 82.6 °F 57.9 °F 42% 30.15 in 10.0 mi NNE 4.6 mph - N/A   Clear
3:53 PM 84.0 °F 83.3 °F 57.0 °F 40% 30.14 in 10.0 mi North 5.8 mph - N/A   Clear
4:53 PM 84.0 °F 82.6 °F 54.0 °F 35% 30.14 in 10.0 mi NE 4.6 mph - N/A   Clear
5:53 PM 82.0 °F 81.6 °F 55.9 °F 41% 30.14 in 10.0 mi NE 3.5 mph - N/A   Clear
6:53 PM 75.0 °F - 64.0 °F 69% 30.15 in 10.0 mi Calm Calm - N/A   Clear
7:53 PM 72.0 °F - 61.0 °F 68% 30.14 in 10.0 mi NE 4.6 mph - N/A   Clear
8:53 PM 69.1 °F - 62.1 °F 78% 30.15 in 10.0 mi ENE 4.6 mph - N/A   Clear
9:53 PM 66.0 °F - 61.0 °F 84% 30.17 in 10.0 mi Calm Calm - N/A   Clear
10:53 PM 64.9 °F - 61.0 °F 87% 30.18 in 10.0 mi Calm Calm - N/A   Clear
11:53 PM 63.0 °F - 61.0 °F 93% 30.17 in 10.0 mi Calm Calm - N/A   Clear